Year,Month,Day,Hour,Minute,Value (Times are PST for temperature in C)
2012,11,30,10,19,8.30
2012,11,30,10,20,8.30
2012,11,30,10,21,8.30
2012,11,30,10,22,8.30
2012,11,30,10,23,8.30
2012,11,30,10,24,8.40
2012,11,30,10,25,8.40
2012,11,30,10,26,8.50
2012,11,30,10,27,8.50
2012,11,30,10,28,8.60
2012,11,30,10,29,8.60
2012,11,30,10,30,8.60
2012,11,30,10,31,8.60
2012,11,30,10,32,8.60
2012,11,30,10,33,8.70
2012,11,30,10,34,8.70
2012,11,30,10,35,8.70
2012,11,30,10,36,8.70
2012,11,30,10,37,8.70
2012,11,30,10,38,8.70
2012,11,30,10,39,8.70
2012,11,30,10,40,8.70
2012,11,30,10,41,8.70
2012,11,30,10,42,8.70
2012,11,30,10,43,8.70
2012,11,30,10,44,8.70
2012,11,30,10,45,8.70
2012,11,30,10,46,8.70
2012,11,30,10,47,8.70
2012,11,30,10,48,8.70
2012,11,30,10,49,8.70
2012,11,30,10,50,8.70
2012,11,30,10,51,8.70
2012,11,30,10,52,8.60
2012,11,30,10,53,8.60
2012,11,30,10,54,8.60
2012,11,30,10,55,8.60
2012,11,30,10,56,8.60
2012,11,30,10,57,8.60
2012,11,30,10,58,8.60
2012,11,30,10,59,8.60
2012,11,30,11,00,8.60
2012,11,30,11,01,8.60
2012,11,30,11,02,8.60
2012,11,30,11,03,8.60
2012,11,30,11,04,8.60
2012,11,30,11,05,8.60
2012,11,30,11,06,8.60
2012,11,30,11,07,8.60
2012,11,30,11,08,8.60
2012,11,30,11,09,8.60
2012,11,30,11,10,8.60
2012,11,30,11,11,8.60
2012,11,30,11,12,8.60
2012,11,30,11,13,8.60
2012,11,30,11,14,8.60
2012,11,30,11,15,8.60
2012,11,30,11,16,8.60
2012,11,30,11,17,8.60
2012,11,30,11,18,8.60
2012,11,30,11,19,8.70
2012,11,30,11,20,8.70
2012,11,30,11,21,8.60
2012,11,30,11,22,8.60
2012,11,30,11,23,8.60
2012,11,30,11,24,8.60
2012,11,30,11,25,8.60
2012,11,30,11,26,8.70
2012,11,30,11,27,8.60
2012,11,30,11,28,8.60
2012,11,30,11,29,8.60
2012,11,30,11,30,8.60
2012,11,30,11,31,8.60
2012,11,30,11,32,8.60
2012,11,30,11,33,8.60
2012,11,30,11,34,8.60
2012,11,30,11,35,8.60
2012,11,30,11,36,8.50
2012,11,30,11,37,8.60
2012,11,30,11,38,8.60
2012,11,30,11,39,8.60
2012,11,30,11,40,8.60
2012,11,30,11,41,8.50
2012,11,30,11,42,8.50
2012,11,30,11,43,8.50
2012,11,30,11,44,8.50
2012,11,30,11,45,8.50
2012,11,30,11,46,8.50
2012,11,30,11,47,8.50
2012,11,30,11,48,8.40
2012,11,30,11,49,8.40
2012,11,30,11,50,8.40
2012,11,30,11,51,8.40
2012,11,30,11,52,8.40
2012,11,30,11,53,8.40
2012,11,30,11,54,8.30
2012,11,30,11,55,8.30
2012,11,30,11,56,8.30
2012,11,30,11,57,8.30
2012,11,30,11,58,8.30
2012,11,30,11,59,8.30
2012,11,30,12,00,8.30
2012,11,30,12,01,8.20
2012,11,30,12,02,8.20
2012,11,30,12,03,8.20
2012,11,30,12,04,8.20
2012,11,30,12,05,8.20
2012,11,30,12,06,8.20
2012,11,30,12,07,8.20
2012,11,30,12,08,8.20
2012,11,30,12,09,8.20
2012,11,30,12,10,8.20
2012,11,30,12,11,8.20
2012,11,30,12,12,8.10
2012,11,30,12,13,8.10
2012,11,30,12,14,8.10
2012,11,30,12,15,8.10
2012,11,30,12,16,8.20
2012,11,30,12,17,8.20
2012,11,30,12,18,8.20
2012,11,30,12,19,8.20
2012,11,30,12,20,8.20
2012,11,30,12,21,8.20
2012,11,30,12,22,8.20
2012,11,30,12,23,8.20
2012,11,30,12,24,8.20
2012,11,30,12,25,8.20
2012,11,30,12,26,8.20
2012,11,30,12,27,8.20
2012,11,30,12,28,8.20
2012,11,30,12,29,8.20
2012,11,30,12,30,8.20
2012,11,30,12,31,8.20
2012,11,30,12,32,8.20
2012,11,30,12,33,8.20
2012,11,30,12,34,8.20
2012,11,30,12,35,8.20
2012,11,30,12,36,8.20
2012,11,30,12,37,8.20
2012,11,30,12,38,8.20
2012,11,30,12,39,8.20
2012,11,30,12,40,8.20
2012,11,30,12,41,8.30
2012,11,30,12,42,8.30
2012,11,30,12,43,8.30
2012,11,30,12,44,8.30
2012,11,30,12,45,8.30
2012,11,30,12,46,8.30
2012,11,30,12,47,8.30
2012,11,30,12,48,8.30
2012,11,30,12,49,8.30
2012,11,30,12,50,8.30
2012,11,30,12,51,8.40
2012,11,30,12,52,8.40
2012,11,30,12,53,8.40
2012,11,30,12,54,8.40
2012,11,30,12,55,8.40
2012,11,30,12,56,8.50
2012,11,30,12,57,8.50
2012,11,30,12,58,8.60
2012,11,30,12,59,8.60
2012,11,30,13,00,8.60
2012,11,30,13,01,8.60
2012,11,30,13,02,8.70
2012,11,30,13,03,8.70
2012,11,30,13,04,8.70
2012,11,30,13,05,8.80
2012,11,30,13,06,8.80
2012,11,30,13,07,8.80
2012,11,30,13,08,8.80
2012,11,30,13,09,8.90
2012,11,30,13,10,8.90
2012,11,30,13,11,8.90
2012,11,30,13,12,8.90
2012,11,30,13,13,8.90
2012,11,30,13,14,8.90
2012,11,30,13,15,8.90
2012,11,30,13,16,8.90
2012,11,30,13,17,8.90
2012,11,30,13,18,9.00
2012,11,30,13,19,9.00
2012,11,30,13,20,9.00
2012,11,30,13,21,9.00
2012,11,30,13,22,9.10
2012,11,30,13,23,9.10
2012,11,30,13,24,9.10
2012,11,30,13,25,9.10
2012,11,30,13,26,9.10
2012,11,30,13,27,9.20
2012,11,30,13,28,9.20
2012,11,30,13,29,9.20
2012,11,30,13,30,9.20
2012,11,30,13,31,9.20
2012,11,30,13,32,9.20
2012,11,30,13,33,9.20
2012,11,30,13,34,9.20
2012,11,30,13,35,9.20
2012,11,30,13,36,9.20
2012,11,30,13,37,9.20
2012,11,30,13,38,9.20
2012,11,30,13,39,9.20
2012,11,30,13,40,9.20
2012,11,30,13,41,9.20
2012,11,30,13,42,9.20
2012,11,30,13,43,9.20
2012,11,30,13,44,9.20
2012,11,30,13,45,9.20
2012,11,30,13,46,9.20
2012,11,30,13,47,9.20
2012,11,30,13,48,9.20
2012,11,30,13,49,9.20
2012,11,30,13,50,9.20
2012,11,30,13,51,9.20
2012,11,30,13,52,9.20
2012,11,30,13,53,9.20
2012,11,30,13,54,9.10
2012,11,30,13,55,9.10
2012,11,30,13,56,9.10
2012,11,30,13,57,9.10
2012,11,30,13,58,9.10
2012,11,30,13,59,9.10
2012,11,30,14,00,9.10
2012,11,30,14,01,9.10
2012,11,30,14,02,9.10
2012,11,30,14,03,9.10
2012,11,30,14,04,9.10
2012,11,30,14,05,9.10
2012,11,30,14,06,9.20
2012,11,30,14,07,9.20
2012,11,30,14,08,9.20
2012,11,30,14,09,9.20
2012,11,30,14,10,9.20
2012,11,30,14,11,9.20
2012,11,30,14,12,9.20
2012,11,30,14,13,9.20
2012,11,30,14,14,9.30
2012,11,30,14,15,9.30
2012,11,30,14,16,9.30
2012,11,30,14,17,9.30
2012,11,30,14,18,9.30
2012,11,30,14,19,9.30
2012,11,30,14,20,9.30
2012,11,30,14,21,9.30
2012,11,30,14,22,9.30
2012,11,30,14,23,9.30
2012,11,30,14,24,9.30
2012,11,30,14,25,9.30
2012,11,30,14,26,9.30
2012,11,30,14,27,9.30
2012,11,30,14,28,9.30
2012,11,30,14,29,9.30
2012,11,30,14,30,9.30
2012,11,30,14,31,9.30
2012,11,30,14,32,9.30
2012,11,30,14,33,9.30
2012,11,30,14,34,9.30
2012,11,30,14,35,9.30
2012,11,30,14,36,9.30
2012,11,30,14,37,9.30
2012,11,30,14,38,9.30
2012,11,30,14,39,9.30
2012,11,30,14,40,9.30
2012,11,30,14,41,9.30
2012,11,30,14,42,9.30
2012,11,30,14,43,9.30
2012,11,30,14,44,9.30
2012,11,30,14,45,9.30
2012,11,30,14,46,9.40
2012,11,30,14,47,9.40
2012,11,30,14,48,9.40
2012,11,30,14,49,9.40
2012,11,30,14,50,9.50
2012,11,30,14,51,9.50
2012,11,30,14,52,9.50
2012,11,30,14,53,9.60
2012,11,30,14,54,9.60
2012,11,30,14,55,9.60
2012,11,30,14,56,9.60
2012,11,30,14,57,9.60
2012,11,30,14,58,9.60
2012,11,30,14,59,9.60
2012,11,30,15,00,9.50
2012,11,30,15,01,9.50
2012,11,30,15,02,9.50
2012,11,30,15,03,9.50
2012,11,30,15,04,9.50
2012,11,30,15,05,9.40
2012,11,30,15,06,9.40
2012,11,30,15,07,9.40
2012,11,30,15,08,9.40
2012,11,30,15,09,9.40
2012,11,30,15,10,9.40
2012,11,30,15,11,9.40
2012,11,30,15,12,9.40
2012,11,30,15,13,9.40
2012,11,30,15,14,9.30
2012,11,30,15,15,9.30
2012,11,30,15,16,9.30
2012,11,30,15,17,9.30
2012,11,30,15,18,9.30
2012,11,30,15,19,9.30
2012,11,30,15,20,9.30
2012,11,30,15,21,9.30
2012,11,30,15,22,9.30
2012,11,30,15,23,9.30
2012,11,30,15,24,9.30
2012,11,30,15,25,9.20
2012,11,30,15,26,9.20
2012,11,30,15,27,9.20
2012,11,30,15,28,9.20
2012,11,30,15,29,9.20
2012,11,30,15,30,9.20
2012,11,30,15,31,9.20
2012,11,30,15,32,9.20
2012,11,30,15,33,9.20
2012,11,30,15,34,9.20
2012,11,30,15,35,9.20
2012,11,30,15,36,9.20
2012,11,30,15,37,9.20
2012,11,30,15,38,9.20
2012,11,30,15,39,9.20
2012,11,30,15,40,9.20
2012,11,30,15,41,9.20
2012,11,30,15,42,9.20
2012,11,30,15,43,9.20
2012,11,30,15,44,9.20
2012,11,30,15,45,9.20
2012,11,30,15,46,9.20
2012,11,30,15,47,9.20
2012,11,30,15,48,9.20
2012,11,30,15,49,9.20
2012,11,30,15,50,9.20
2012,11,30,15,51,9.10
2012,11,30,15,52,9.10
2012,11,30,15,53,9.10
2012,11,30,15,54,9.10
2012,11,30,15,55,9.10
2012,11,30,15,56,9.10
2012,11,30,15,57,9.10
2012,11,30,15,58,9.10
2012,11,30,15,59,9.10
2012,11,30,16,00,9.10
2012,11,30,16,01,9.10
